FW4718 Weather Reports


time (UTC)temp
C
wind
direction
speed
KPH
gust
KPH
rain 1hr
cm
rain 24hr
cm
rain mn
cm
humidity
%
barometer
mb
20260507142012 16 167 1.6 8.0 0.00 0.00 0.00 54 1015.2
20260507141528 16 142 1.6 8.0 0.00 0.00 0.00 53 1015.2
20260507141010 16 128 1.6 9.7 0.00 0.00 0.00 54 1015.2
20260507140511 16 114 1.6 9.7 0.00 0.00 0.00 57 1015.2
20260507140035 16 78 3.2 8.0 0.00 0.00 0.00 55 1015.2
20260507135511 16 175 0.0 4.8 0.00 0.00 0.00 53 1015.2
20260507135011 16 0 0.0 6.4 0.00 0.00 0.00 53 1015.3
20260507134530 17 202 1.6 6.4 0.00 0.00 0.00 52 1015.5
20260507134007 17 0 0.0 8.0 0.00 0.00 0.00 56 1015.4
20260507133509 17 0 0.0 9.7 0.00 0.00 0.00 50 1015.3
20260507133029 17 127 1.6 9.7 0.00 0.00 0.00 56 1015.4
20260507132510 17 188 3.2 11.3 0.00 0.00 0.00 53 1015.4
20260507132010 16 111 3.2 11.3 0.00 0.00 0.00 56 1015.5
20260507131532 16 134 1.6 11.3 0.00 0.00 0.00 55 1015.5
20260507131011 16 149 0.0 6.4 0.00 0.00 0.00 56 1015.5
20260507130514 16 0 0.0 6.4 0.00 0.00 0.00 54 1015.5
20260507130033 16 109 3.2 8.0 0.00 0.00 0.00 55 1015.7
20260507125512 16 120 1.6 12.9 0.00 0.00 0.00 54 1015.7
20260507125011 17 193 4.8 16.1 0.00 0.00 0.00 57 1015.7
20260507124529 17 190 4.8 16.1 0.00 0.00 0.00 57 1015.7
20260507124008 17 81 4.8 14.5 0.00 0.00 0.00 57 1015.6
20260507123509 17 144 4.8 12.9 0.00 0.00 0.00 57 1015.7
20260507123032 17 111 4.8 12.9 0.00 0.00 0.00 54 1015.8
20260507122509 17 0 1.6 14.5 0.00 0.00 0.00 54 1015.7
20260507122013 17 154 3.2 14.5 0.00 0.00 0.00 57 1015.8
20260507121533 16 126 6.4 14.5 0.00 0.00 0.00 58 1015.9
20260507121011 16 0 1.6 11.3 0.00 0.00 0.00 58 1015.8
20260507120510 16 214 3.2 17.7 0.00 0.00 0.00 62 1015.9
20260507120029 16 98 3.2 17.7 0.00 0.00 0.00 63 1015.9
20260507115514 16 156 1.6 8.0 0.00 0.00 0.00 59 1015.8
20260507115012 16 147 3.2 14.5 0.00 0.00 0.00 67 1015.8
20260507114528 16 113 3.2 14.5 0.00 0.00 0.00 67 1015.6
20260507114011 16 73 3.2 14.5 0.00 0.00 0.00 69 1015.7
20260507113511 16 123 3.2 12.9 0.00 0.00 0.00 72 1015.8
20260507113029 15 69 4.8 12.9 0.00 0.00 0.00 73 1015.9
20260507112513 15 113 4.8 9.7 0.00 0.00 0.00 75 1016.1
20260507112013 14 0 1.6 6.4 0.00 0.00 0.00 71 1016.1
20260507111530 13 17 1.6 6.4 0.00 0.00 0.00 74 1016.1
20260507111009 13 0 3.2 9.7 0.00 0.00 0.00 72 1016.2
20260507110510 13 192 1.6 9.7 0.00 0.00 0.00 74 1016.2
20260507110030 13 242 1.6 8.0 0.00 0.00 0.00 73 1016.2
20260507105510 13 0 1.6 8.0 0.00 0.00 0.00 74 1016.2
20260507105012 13 222 4.8 8.0 0.00 0.00 0.00 73 1016.2
20260507104527 12 119 3.2 4.8 0.00 0.00 0.00 74 1016.2
20260507104014 12 0 0.0 6.4 0.00 0.00 0.00 75 1016.4
20260507103512 12 0 0.0 6.4 0.00 0.00 0.00 76 1016.4
20260507103036 12 164 1.6 6.4 0.00 0.00 0.00 77 1016.4
20260507102513 12 182 1.6 6.4 0.00 0.00 0.00 77 1016.5
20260507102013 12 145 3.2 6.4 0.00 0.00 0.00 77 1016.5
20260507101530 11 204 3.2 6.4 0.00 0.00 0.00 77 1016.5
20260507101012 11 121 1.6 6.4 0.00 0.00 0.00 78 1016.5
20260507100512 11 0 1.6 9.7 0.00 0.00 0.00 78 1016.5
20260507100031 11 118 3.2 9.7 0.00 0.00 0.00 80 1016.5
20260507095513 11 129 1.6 6.4 0.00 0.00 0.00 80 1016.5
20260507095013 10 132 0.0 9.7 0.00 0.00 0.00 83 1016.6
20260507094532 10 126 3.2 9.7 0.00 0.00 0.00 84 1016.5
20260507094012 10 159 1.6 6.4 0.00 0.00 0.00 85 1016.5
20260507093515 10 0 0.0 6.4 0.00 0.00 0.00 86 1016.5
20260507093028 10 115 1.6 6.4 0.00 0.00 0.00 86 1016.5
20260507092513 9 0 0.0 6.4 0.00 0.00 0.00 87 1016.5
20260507092015 9 130 1.6 6.4 0.00 0.00 0.00 87 1016.5
20260507091538 9 105 1.6 6.4 0.00 0.00 0.00 89 1016.5
20260507091012 9 115 3.2 6.4 0.00 0.00 0.00 90 1016.5
20260507090512 8 113 0.0 6.4 0.00 0.00 0.00 89 1016.5
20260507090034 8 0 1.6 9.7 0.00 0.00 0.00 90 1016.5
20260507085513 8 106 3.2 9.7 0.00 0.00 0.00 90 1016.6
20260507085017 8 85 3.2 8.0 0.00 0.00 0.00 90 1016.6
20260507084540 8 101 3.2 9.7 0.00 0.00 0.00 91 1016.7
20260507084014 8 103 3.2 11.3 0.00 0.00 0.00 91 1016.5
20260507083517 8 119 3.2 11.3 0.00 0.00 0.00 91 1016.6
20260507083030 8 103 3.2 11.3 0.00 0.00 0.00 90 1016.5
20260507082512 8 134 3.2 11.3 0.00 0.00 0.00 91 1016.6
20260507082012 8 108 4.8 11.3 0.00 0.00 0.00 92 1016.6
20260507081621 8 107 3.2 9.7 0.00 0.00 0.00 93 1016.6
20260507081013 7 136 1.6 9.7 0.00 0.00 0.00 93 1016.5
20260507080510 7 90 1.6 9.7 0.00 0.00 0.00 94 1016.5
20260507080030 7 126 3.2 6.4 0.00 0.00 0.00 94 1016.4
20260507075510 7 114 3.2 6.4 0.00 0.00 0.00 94 1016.5
20260507075011 7 103 1.6 6.4 0.00 0.00 0.00 94 1016.4
20260507074528 7 114 0.0 6.4 0.00 0.00 0.00 95 1016.5
20260507074010 7 121 1.6 9.7 0.00 0.00 0.00 95 1016.5
20260507073513 7 90 1.6 9.7 0.00 0.00 0.00 95 1016.5
20260507073030 7 114 0.0 9.7 0.00 0.00 0.00 96 1016.5
20260507072511 6 0 1.6 11.3 0.00 0.00 0.00 96 1016.4
20260507072012 6 0 3.2 11.3 0.00 0.00 0.00 96 1016.3
20260507071530 6 109 3.2 9.7 0.00 0.00 0.00 96 1016.4
20260507071010 6 117 4.8 9.7 0.00 0.00 0.00 96 1016.4
20260507070512 6 108 3.2 9.7 0.00 0.00 0.00 96 1016.3
20260507070039 6 90 3.2 9.7 0.00 0.00 0.00 97 1016.3
20260507065510 6 97 4.8 9.7 0.00 0.00 0.00 97 1016.4
20260507065011 6 121 3.2 9.7 0.00 0.00 0.00 97 1016.3
20260507064529 6 113 1.6 9.7 0.00 0.00 0.00 97 1016.3
20260507064010 6 123 3.2 9.7 0.00 0.00 0.00 97 1016.2
20260507063511 5 92 1.6 11.3 0.00 0.00 0.00 97 1016.2
20260507063033 5 102 3.2 11.3 0.00 0.00 0.00 97 1016.2
20260507062512 5 104 3.2 11.3 0.00 0.00 0.00 97 1016.3
20260507062012 5 119 3.2 6.4 0.00 0.00 0.00 97 1016.2
20260507061530 5 126 1.6 9.7 0.00 0.00 0.00 97 1016.2
20260507061012 5 126 3.2 9.7 0.00 0.00 0.00 97 1016.2
20260507060513 5 105 3.2 4.8 0.00 0.00 0.00 97 1016.1
20260507060028 5 107 0.0 9.7 0.00 0.00 0.00 97 1016.2
20260507055513 5 107 1.6 9.7 0.00 0.00 0.00 97 1016.1
20260507055016 5 107 3.2 6.4 0.00 0.00 0.00 97 1016.1
20260507054532 4 119 1.6 6.4 0.00 0.00 0.00 97 1016.1
20260507054017 4 111 3.2 6.4 0.00 0.00 0.00 97 1016.0
20260507053514 4 83 1.6 6.4 0.00 0.00 0.00 97 1016.1
20260507053033 3 86 1.6 4.8 0.00 0.00 0.00 97 1016.0
20260507052513 3 0 0.0 0.0 0.00 0.00 0.00 97 1016.1
20260507052012 3 0 0.0 0.0 0.00 0.00 0.00 97 1016.0
20260507051528 3 0 0.0 0.0 0.00 0.00 0.00 97 1016.1
20260507051012 3 0 0.0 0.0 0.00 0.00 0.00 96 1016.1
20260507050517 3 0 0.0 0.0 0.00 0.00 0.00 96 1016.1
20260507050042 3 0 0.0 0.0 0.00 0.00 0.00 97 1016.1
20260507045513 2 0 0.0 0.0 0.00 0.00 0.00 96 1016.1
20260507045012 2 0 0.0 0.0 0.00 0.00 0.00 96 1016.0
20260507044529 2 0 0.0 0.0 0.00 0.00 0.00 96 1016.0
20260507044013 2 0 0.0 0.0 0.00 0.00 0.00 95 1016.0
20260507043513 2 0 0.0 0.0 0.00 0.00 0.00 95 1016.0
20260507043030 2 0 0.0 0.0 0.00 0.00 0.00 95 1015.9
20260507042513 2 0 0.0 0.0 0.00 0.00 0.00 95 1015.9
20260507042012 2 0 0.0 0.0 0.00 0.00 0.00 95 1015.9
20260507041528 2 0 0.0 0.0 0.00 0.00 0.00 95 1015.9
20260507041013 2 0 0.0 0.0 0.00 0.00 0.00 94 1015.9
20260507040513 2 0 0.0 0.0 0.00 0.00 0.00 94 1015.8
20260507040031 2 0 0.0 0.0 0.00 0.00 0.00 94 1015.9
20260507035512 2 0 0.0 0.0 0.00 0.00 0.00 94 1015.8
20260507035013 2 0 0.0 0.0 0.00 0.00 0.00 94 1015.8
20260507034531 2 0 0.0 0.0 0.00 0.00 0.00 94 1015.8
20260507034012 2 0 0.0 0.0 0.00 0.00 0.00 94 1015.8
20260507033513 2 0 0.0 0.0 0.00 0.00 0.00 93 1015.8
20260507033028 2 0 0.0 0.0 0.00 0.00 0.00 93 1015.9
20260507032513 2 0 0.0 0.0 0.00 0.00 0.00 93 1015.9
20260507032012 2 0 0.0 0.0 0.00 0.00 0.00 93 1015.9
20260507031529 3 0 0.0 0.0 0.00 0.00 0.00 93 1015.9
20260507031015 3 0 0.0 0.0 0.00 0.00 0.00 93 1015.9
20260507030513 3 0 0.0 0.0 0.00 0.00 0.00 93 1016.1
20260507030031 3 0 0.0 0.0 0.00 0.00 0.00 94 1016.1
20260507025512 3 0 0.0 0.0 0.00 0.00 0.00 94 1016.0
20260507025013 3 0 0.0 0.0 0.00 0.00 0.00 94 1016.1
20260507024535 3 0 0.0 0.0 0.00 0.00 0.00 94 1016.1
20260507024012 3 0 0.0 0.0 0.00 0.00 0.00 94 1016.0
20260507023515 3 0 0.0 0.0 0.00 0.00 0.00 94 1016.0
20260507023028 4 0 0.0 0.0 0.00 0.00 0.00 94 1016.0
20260507022512 4 0 0.0 0.0 0.00 0.00 0.00 94 1015.9
20260507022013 4 0 0.0 0.0 0.00 0.00 0.00 94 1015.9
20260507021535 4 0 0.0 0.0 0.00 0.00 0.00 94 1015.9
20260507021012 4 0 0.0 0.0 0.00 0.00 0.00 94 1016.0
20260507020512 4 0 0.0 0.0 0.00 0.00 0.00 93 1015.8
20260507020030 4 0 0.0 0.0 0.00 0.00 0.00 94 1015.9
20260507015512 4 0 0.0 0.0 0.00 0.00 0.00 94 1016.0
20260507015015 4 0 0.0 0.0 0.00 0.00 0.00 93 1016.0
20260507014530 4 0 0.0 0.0 0.00 0.00 0.00 94 1016.0
20260507014012 5 0 0.0 3.2 0.00 0.00 0.00 94 1016.0
20260507013511 5 0 0.0 3.2 0.00 0.00 0.00 94 1015.9
20260507013033 5 115 0.0 4.8 0.00 0.00 0.00 94 1015.9
20260507012512 5 115 1.6 4.8 0.00 0.00 0.00 94 1016.0
20260507012014 5 0 0.0 4.8 0.00 0.00 0.00 94 1016.0
20260507011533 5 0 0.0 6.4 0.00 0.00 0.00 94 1016.0
20260507011011 5 116 1.6 6.4 0.00 0.00 0.00 93 1016.0
20260507010515 5 113 1.6 4.8 0.00 0.00 0.00 93 1015.8
20260507010040 5 113 3.2 6.4 0.00 0.00 0.00 94 1016.0
20260507005513 5 101 1.6 6.4 0.00 0.00 0.00 94 1015.9
20260507005017 5 105 3.2 8.0 0.00 0.00 0.00 93 1016.0
20260507004529 5 121 3.2 8.0 0.00 0.00 0.00 94 1015.9
20260507004012 5 78 3.2 9.7 0.00 0.00 0.00 94 1015.9
20260507003514 5 80 3.2 9.7 0.00 0.00 0.00 94 1016.0
20260507003029 5 61 3.2 11.3 0.00 0.00 0.00 94 1015.9
20260507002514 5 88 4.8 12.9 0.00 0.00 0.00 94 1015.9
20260507002013 5 86 4.8 16.1 0.00 0.00 0.00 94 1016.0
20260507001544 5 81 4.8 16.1 0.00 0.00 0.00 94 1015.8
20260507001011 5 162 6.4 14.5 0.00 0.00 0.00 95 1016.0
20260507000512 5 86 4.8 17.7 0.00 0.00 0.00 95 1016.0
20260507000032 5 50 6.4 17.7 0.00 0.00 0.00 95 1016.0
20260506235512 5 121 6.4 14.5 0.00 0.00 0.00 95 1016.1
20260506235012 5 55 6.4 14.5 0.00 0.00 0.00 95 1016.2
20260506234529 4 84 6.4 14.5 0.00 0.00 0.00 95 1016.2
20260506234012 4 61 4.8 11.3 0.00 0.00 0.00 95 1016.1
20260506233512 3 74 3.2 9.7 0.00 0.00 0.00 94 1016.0
20260506233030 3 59 3.2 9.7 0.00 0.00 0.00 93 1016.2
20260506232512 3 66 3.2 6.4 0.00 0.00 0.00 93 1016.2
20260506232012 3 60 1.6 6.4 0.00 0.00 0.00 92 1016.2
20260506231534 3 65 3.2 6.4 0.00 0.00 0.00 91 1016.1
20260506231012 3 71 3.2 6.4 0.00 0.00 0.00 91 1016.1
20260506230511 3 74 3.2 6.4 0.00 0.00 0.00 91 1016.0
20260506230031 3 73 1.6 6.4 0.00 0.00 0.00 90 1016.1
20260506225512 3 0 0.0 4.8 0.00 0.00 0.00 89 1016.1
20260506225012 3 0 0.0 4.8 0.00 0.00 0.00 89 1016.2
20260506224529 3 81 1.6 4.8 0.00 0.00 0.00 89 1016.1
20260506224011 3 0 0.0 0.0 0.00 0.00 0.00 88 1016.1
20260506223511 3 0 0.0 0.0 0.00 0.00 0.00 88 1016.2
20260506223030 3 0 0.0 0.0 0.00 0.00 0.00 88 1016.2
20260506222512 4 0 0.0 0.0 0.00 0.00 0.00 88 1016.1
20260506222017 4 0 0.0 3.2 0.00 0.00 0.00 88 1016.1
20260506221530 4 0 0.0 3.2 0.00 0.00 0.00 88 1016.0
20260506221017 5 0 0.0 3.2 0.00 0.00 0.00 89 1016.0
20260506220513 5 0 0.0 3.2 0.00 0.00 0.00 89 1015.9
20260506220031 5 0 0.0 3.2 0.00 0.00 0.00 89 1016.0
20260506215509 5 0 0.0 6.4 0.00 0.00 0.00 89 1015.8
20260506215012 5 0 1.6 6.4 0.00 0.00 0.00 89 1015.8
20260506214531 5 72 1.6 4.8 0.00 0.00 0.00 89 1015.7
20260506214012 5 76 1.6 4.8 0.00 0.00 0.00 88 1015.7
20260506213514 5 75 1.6 6.4 0.00 0.00 0.00 88 1015.7
20260506213040 5 76 3.2 6.4 0.00 0.00 0.00 86 1015.6
20260506212512 5 69 0.0 4.8 0.00 0.00 0.00 85 1015.6
20260506212010 6 70 0.0 4.8 0.00 0.00 0.00 85 1015.6
20260506211539 6 0 0.0 4.8 0.00 0.00 0.00 85 1015.5
20260506211013 6 0 1.6 4.8 0.00 0.00 0.00 86 1015.5
20260506210512 6 70 0.0 4.8 0.00 0.00 0.00 86 1015.5
20260506210039 6 0 0.0 6.4 0.00 0.00 0.00 86 1015.4
20260506205511 6 60 1.6 6.4 0.00 0.00 0.00 85 1015.4
20260506205013 6 59 3.2 9.7 0.00 0.00 0.00 85 1015.4
20260506204533 6 95 3.2 9.7 0.00 0.00 0.00 85 1015.3
20260506204013 7 64 4.8 9.7 0.00 0.00 0.00 84 1015.3
20260506203516 7 72 4.8 11.3 0.00 0.00 0.00 84 1015.3
20260506203029 7 57 4.8 14.5 0.00 0.00 0.00 84 1015.3
20260506202512 7 68 4.8 14.5 0.00 0.00 0.00 83 1015.2
20260506202012 7 67 3.2 11.3 0.00 0.00 0.00 83 1015.2
20260506201536 7 110 3.2 16.1 0.00 0.00 0.00 82 1015.2
20260506201009 7 110 4.8 16.1 0.00 0.00 0.00 82 1015.2
20260506200508 7 68 3.2 9.7 0.00 0.00 0.00 81 1015.1
20260506200032 7 95 3.2 9.7 0.00 0.00 0.00 81 1015.0
20260506195511 8 0 1.6 11.3 0.00 0.00 0.00 80 1014.9
20260506195013 8 69 4.8 11.3 0.00 0.00 0.00 80 1015.0
20260506194528 8 92 3.2 9.7 0.00 0.00 0.00 80 1015.0
20260506194012 8 69 3.2 8.0 0.00 0.00 0.00 79 1015.0
20260506193512 8 65 3.2 8.0 0.00 0.00 0.00 78 1014.9
20260506193042 8 55 3.2 8.0 0.00 0.00 0.00 78 1014.7
20260506192514 8 38 3.2 9.7 0.00 0.00 0.00 78 1014.7
20260506192013 8 102 4.8 14.5 0.00 0.00 0.00 77 1014.7
20260506191531 9 51 4.8 14.5 0.00 0.00 0.00 76 1014.6
20260506191012 9 56 4.8 12.9 0.00 0.00 0.00 76 1014.6
20260506190508 9 77 4.8 16.1 0.00 0.00 0.00 75 1014.6
20260506190028 10 62 4.8 16.1 0.00 0.00 0.00 75 1014.6
20260506185511 10 82 6.4 17.7 0.00 0.00 0.00 74 1014.6
20260506185009 10 103 8.0 17.7 0.00 0.00 0.00 74 1014.7
20260506184532 10 46 6.4 17.7 0.00 0.00 0.00 74 1014.6
20260506184009 10 101 9.7 16.1 0.00 0.00 0.00 74 1014.6
20260506183511 10 73 4.8 12.9 0.00 0.00 0.00 73 1014.6
20260506183029 10 85 6.4 19.3 0.00 0.00 0.00 72 1014.5
20260506182511 10 121 8.0 19.3 0.00 0.00 0.00 71 1014.5
20260506182017 11 69 8.0 16.1 0.00 0.00 0.00 70 1014.6
20260506181540 11 129 6.4 14.5 0.00 0.00 0.00 70 1014.6
20260506181009 11 69 6.4 14.5 0.00 0.00 0.00 69 1014.6
20260506180514 11 55 4.8 14.5 0.00 0.00 0.00 68 1014.5
20260506180031 11 88 4.8 16.1 0.00 0.00 0.00 68 1014.4
20260506175514 11 88 3.2 16.1 0.00 0.00 0.00 67 1014.3
20260506175008 11 71 4.8 16.1 0.00 0.00 0.00 66 1014.3
20260506174533 11 119 4.8 12.9 0.00 0.00 0.00 66 1014.3
20260506174014 11 86 3.2 12.9 0.00 0.00 0.00 67 1014.3
20260506173512 11 76 4.8 22.5 0.00 0.00 0.00 66 1014.3
20260506173050 11 75 1.6 22.5 0.00 0.00 0.00 66 1014.2
20260506172508 12 74 6.4 14.5 0.00 0.00 0.00 65 1014.3
20260506172012 12 67 3.2 12.9 0.00 0.00 0.00 64 1014.2
20260506171538 12 91 3.2 19.3 0.00 0.00 0.00 64 1014.2
20260506171011 12 111 6.4 19.3 0.00 0.00 0.00 62 1014.3
20260506170515 12 72 9.7 19.3 0.00 0.00 0.00 60 1014.3
20260506170038 13 43 4.8 14.5 0.00 0.00 0.00 58 1014.3
20260506165512 13 63 3.2 9.7 0.00 0.00 0.00 59 1014.3
20260506165009 13 76 3.2 9.7 0.00 0.00 0.00 57 1014.2
20260506164530 13 27 3.2 11.3 0.00 0.00 0.00 57 1014.2
20260506164010 13 100 3.2 11.3 0.00 0.00 0.00 58 1014.2
20260506163509 13 62 4.8 12.9 0.00 0.00 0.00 56 1014.0
20260506163033 14 80 3.2 12.9 0.00 0.00 0.00 55 1014.1
20260506162509 14 75 3.2 12.9 0.00 0.00 0.00 55 1014.0
20260506162015 14 63 1.6 12.9 0.00 0.00 0.00 56 1014.1
20260506161528 15 67 3.2 12.9 0.00 0.00 0.00 55 1014.1
20260506161013 14 61 4.8 12.9 0.00 0.00 0.00 58 1014.0
20260506160512 14 57 4.8 14.5 0.00 0.00 0.00 60 1014.1
20260506160028 13 24 3.2 14.5 0.00 0.00 0.00 58 1014.1
20260506155512 13 119 3.2 12.9 0.00 0.00 0.00 62 1014.1
20260506155009 13 79 3.2 12.9 0.00 0.00 0.00 58 1014.0
20260506154529 13 72 4.8 16.1 0.00 0.00 0.00 60 1014.1
20260506154014 13 63 4.8 16.1 0.00 0.00 0.00 57 1014.2
20260506153516 13 75 6.4 14.5 0.00 0.00 0.00 58 1014.1
20260506153030 13 76 6.4 14.5 0.00 0.00 0.00 59 1014.1
20260506152509 13 48 4.8 17.7 0.00 0.00 0.00 59 1014.0
20260506152011 13 128 6.4 17.7 0.00 0.00 0.00 57 1014.1
20260506151531 13 96 4.8 17.7 0.00 0.00 0.00 57 1014.2
20260506151011 13 103 4.8 17.7 0.00 0.00 0.00 60 1014.1
20260506150511 13 76 3.2 8.0 0.00 0.00 0.00 59 1014.2
20260506150030 13 0 1.6 11.3 0.00 0.00 0.00 58 1014.2
20260506145516 13 74 3.2 12.9 0.00 0.00 0.00 58 1014.2
20260506145013 13 34 4.8 12.9 0.00 0.00 0.00 60 1014.3
20260506144532 13 41 3.2 25.7 0.00 0.00 0.00 59 1014.2
20260506144011 13 60 3.2 25.7 0.00 0.00 0.00 59 1014.2
20260506143508 13 110 3.2 25.7 0.00 0.00 0.00 54 1013.8
20260506143029 13 115 1.6 8.0 0.00 0.00 0.00 52 1014.2
20260506142511 13 0 0.0 8.0 0.00 0.00 0.00 57 1014.3